5XCMG HKNW-HKNW

Flight info

Callsign 5XCMG
Flight time 1h 26m
Altitude FL070
Route
Aircraft C208/M-VGD/C

Departure

Time 2026-05-05 14:21
Airport Nairobi Wilson Airport (HKNW)

Arrival

Time 2026-05-05 15:48
Airport Nairobi Wilson Airport (HKNW)
Time Latitude Longitude Altitude Speed Heading
2026-05-05 14:13 -1.31875 36.81463 5497 ft 0 kts 298°
2026-05-05 14:18 -1.31872 36.81455 5497 ft 4 kts 284°
2026-05-05 14:19 -1.31874 36.81436 5498 ft 8 kts 257°
2026-05-05 14:19 -1.31878 36.81419 5498 ft 11 kts 251°
2026-05-05 14:19 -1.31939 36.81345 5498 ft 14 kts 238°
2026-05-05 14:19 -1.31930 36.81261 5501 ft 11 kts 298°
2026-05-05 14:20 -1.31912 36.81203 5504 ft 6 kts 233°
2026-05-05 14:20 -1.31940 36.81220 5502 ft 8 kts 131°
2026-05-05 14:20 -1.32040 36.81320 5494 ft 44 kts 134°
2026-05-05 14:20 -1.32415 36.81702 5474 ft 102 kts 135°
2026-05-05 14:21 -1.32958 36.82228 5705 ft 110 kts 136°
2026-05-05 14:21 -1.33512 36.82728 6023 ft 109 kts 142°
2026-05-05 14:21 -1.34243 36.82770 6249 ft 112 kts 216°
2026-05-05 14:21 -1.34513 36.82113 6463 ft 108 kts 285°
2026-05-05 14:22 -1.34107 36.81563 6786 ft 97 kts 329°
2026-05-05 14:22 -1.33568 36.81193 7021 ft 104 kts 323°
2026-05-05 14:22 -1.32982 36.80688 7281 ft 106 kts 319°
2026-05-05 14:22 -1.32486 36.80158 7535 ft 112 kts 301°
2026-05-05 14:23 -1.32326 36.79357 7750 ft 118 kts 277°
2026-05-05 14:23 -1.32269 36.78547 7907 ft 130 kts 276°
2026-05-05 14:23 -1.32238 36.77639 8207 ft 123 kts 273°
2026-05-05 14:23 -1.32240 36.76736 8280 ft 140 kts 272°
2026-05-05 14:24 -1.32257 36.75777 8533 ft 136 kts 271°
2026-05-05 14:24 -1.32266 36.74806 8643 ft 143 kts 272°
2026-05-05 14:24 -1.32270 36.73830 8808 ft 144 kts 272°
2026-05-05 14:24 -1.32274 36.72843 8973 ft 144 kts 272°
2026-05-05 14:25 -1.32276 36.71853 9136 ft 145 kts 272°
2026-05-05 14:25 -1.32278 36.70855 9296 ft 146 kts 272°
2026-05-05 14:25 -1.32279 36.69850 9455 ft 146 kts 272°
2026-05-05 14:25 -1.32262 36.68844 9604 ft 146 kts 282°
2026-05-05 14:26 -1.31749 36.68034 9741 ft 140 kts 329°
2026-05-05 14:26 -1.30851 36.67766 9889 ft 137 kts 355°
2026-05-05 14:26 -1.29911 36.67707 10023 ft 139 kts 359°
2026-05-05 14:26 -1.28939 36.67679 10051 ft 146 kts 360°
2026-05-05 14:27 -1.27911 36.67654 10052 ft 154 kts 360°
2026-05-05 14:27 -1.26828 36.67631 10050 ft 162 kts
2026-05-05 14:27 -1.25699 36.67606 10050 ft 166 kts 360°
2026-05-05 14:27 -1.24543 36.67583 10049 ft 169 kts 360°
2026-05-05 14:28 -1.23370 36.67560 10048 ft 171 kts
2026-05-05 14:28 -1.22189 36.67538 10048 ft 171 kts
2026-05-05 14:28 -1.21033 36.67458 10046 ft 173 kts 343°
2026-05-05 14:28 -1.20157 36.66638 10064 ft 178 kts 298°
2026-05-05 14:29 -1.19729 36.65488 10052 ft 181 kts 289°
2026-05-05 14:29 -1.19368 36.64280 10048 ft 181 kts 288°
2026-05-05 14:29 -1.19005 36.63062 10048 ft 181 kts 289°
2026-05-05 14:29 -1.18638 36.61862 10049 ft 181 kts 289°
2026-05-05 14:30 -1.18261 36.60662 10048 ft 181 kts 289°
2026-05-05 14:30 -1.17878 36.59462 10047 ft 181 kts 290°
2026-05-05 14:30 -1.17489 36.58262 10044 ft 181 kts 289°
2026-05-05 14:30 -1.17097 36.57065 10048 ft 181 kts 290°
2026-05-05 14:31 -1.16705 36.55869 10045 ft 181 kts 290°
2026-05-05 14:31 -1.16306 36.54665 10048 ft 181 kts 290°
2026-05-05 14:31 -1.15908 36.53467 10047 ft 181 kts 290°
2026-05-05 14:31 -1.15510 36.52273 10047 ft 181 kts 290°
2026-05-05 14:32 -1.15111 36.51077 10047 ft 181 kts 290°
2026-05-05 14:32 -1.14711 36.49881 10047 ft 181 kts 290°
2026-05-05 14:32 -1.14312 36.48686 10047 ft 181 kts 290°
2026-05-05 14:32 -1.13913 36.47494 10047 ft 181 kts 290°
2026-05-05 14:33 -1.13652 36.46283 10048 ft 184 kts 264°
2026-05-05 14:33 -1.14275 36.45201 10062 ft 185 kts 218°
2026-05-05 14:33 -1.15474 36.44829 10061 ft 183 kts 173°
2026-05-05 14:33 -1.16566 36.45361 10061 ft 178 kts 128°
2026-05-05 14:34 -1.17122 36.46432 10056 ft 176 kts 108°
2026-05-05 14:34 -1.17533 36.47554 10048 ft 176 kts 108°
2026-05-05 14:34 -1.17974 36.48689 10048 ft 177 kts 108°
2026-05-05 14:34 -1.18378 36.49736 10157 ft 169 kts 109°
2026-05-05 14:35 -1.18805 36.50843 10207 ft 168 kts 109°
2026-05-05 14:35 -1.19210 36.51894 10211 ft 169 kts 109°
2026-05-05 14:35 -1.19915 36.52803 10210 ft 173 kts 145°
2026-05-05 14:35 -1.20939 36.53378 10212 ft 174 kts 149°
2026-05-05 14:36 -1.21997 36.53930 10211 ft 175 kts 149°
2026-05-05 14:36 -1.23055 36.54486 10211 ft 175 kts 149°
2026-05-05 14:36 -1.24112 36.55053 10211 ft 175 kts 149°
2026-05-05 14:36 -1.25154 36.55619 10210 ft 176 kts 148°
2026-05-05 14:37 -1.26201 36.56195 10210 ft 176 kts 148°
2026-05-05 14:37 -1.27258 36.56781 10210 ft 176 kts 148°
2026-05-05 14:37 -1.28303 36.57365 10210 ft 176 kts 148°
2026-05-05 14:37 -1.29328 36.57940 10210 ft 176 kts 148°
2026-05-05 14:38 -1.30369 36.58526 10210 ft 176 kts 148°
2026-05-05 14:38 -1.31409 36.59114 10210 ft 176 kts 148°
2026-05-05 14:38 -1.32455 36.59706 10210 ft 176 kts 148°
2026-05-05 14:38 -1.33510 36.60304 10210 ft 176 kts 148°
2026-05-05 14:39 -1.34578 36.60910 10210 ft 176 kts 148°
2026-05-05 14:39 -1.35633 36.61510 10210 ft 176 kts 147°
2026-05-05 14:39 -1.36696 36.62114 10210 ft 176 kts 147°
2026-05-05 14:39 -1.37753 36.62715 10210 ft 176 kts 147°
2026-05-05 14:40 -1.38814 36.63318 10210 ft 176 kts 147°
2026-05-05 14:40 -1.39868 36.63919 10210 ft 176 kts 147°
2026-05-05 14:40 -1.40964 36.64317 10201 ft 180 kts 179°
2026-05-05 14:40 -1.41949 36.63929 10210 ft 184 kts 218°
2026-05-05 14:41 -1.42556 36.62731 10209 ft 186 kts 266°
2026-05-05 14:41 -1.42252 36.61616 10212 ft 184 kts 303°
2026-05-05 14:41 -1.41458 36.60560 10211 ft 184 kts 310°
2026-05-05 14:41 -1.40648 36.59593 10210 ft 185 kts 311°
2026-05-05 14:42 -1.39842 36.58645 10210 ft 185 kts 312°
2026-05-05 14:42 -1.39024 36.57684 10210 ft 185 kts 312°
2026-05-05 14:42 -1.38197 36.56731 10207 ft 185 kts 317°
2026-05-05 14:42 -1.37096 36.56306 10210 ft 177 kts
2026-05-05 14:43 -1.36052 36.56778 10209 ft 172 kts 49°
2026-05-05 14:43 -1.35616 36.57820 10211 ft 170 kts 84°
2026-05-05 14:43 -1.35796 36.58970 10208 ft 171 kts 111°
2026-05-05 14:43 -1.36397 36.59985 10209 ft 173 kts 127°
2026-05-05 14:44 -1.37161 36.60906 10210 ft 173 kts 128°
2026-05-05 14:44 -1.37946 36.61826 10210 ft 173 kts 128°
2026-05-05 14:44 -1.38739 36.62724 10210 ft 173 kts 130°
2026-05-05 14:44 -1.39542 36.63616 10211 ft 173 kts 128°
2026-05-05 14:45 -1.40388 36.64467 10199 ft 176 kts 149°
2026-05-05 14:45 -1.41585 36.64538 10210 ft 181 kts 197°
2026-05-05 14:45 -1.42520 36.63740 10209 ft 185 kts 241°
2026-05-05 14:45 -1.42675 36.62508 10209 ft 186 kts 285°
2026-05-05 14:46 -1.42056 36.61415 10214 ft 184 kts 308°
2026-05-05 14:46 -1.41269 36.60432 10210 ft 184 kts 311°
2026-05-05 14:46 -1.40457 36.59464 10210 ft 185 kts 311°
2026-05-05 14:46 -1.39647 36.58505 10210 ft 185 kts 311°
2026-05-05 14:47 -1.38831 36.57540 10210 ft 185 kts 311°
2026-05-05 14:47 -1.38018 36.56604 10206 ft 184 kts 319°
2026-05-05 14:47 -1.36882 36.56218 10210 ft 177 kts
2026-05-05 14:47 -1.35863 36.56736 10209 ft 171 kts 51°
2026-05-05 14:48 -1.35449 36.57796 10213 ft 170 kts 81°
2026-05-05 14:48 -1.35627 36.58936 10208 ft 171 kts 114°
2026-05-05 14:48 -1.36308 36.59904 10210 ft 173 kts 128°
2026-05-05 14:48 -1.37107 36.60797 10210 ft 173 kts 130°
2026-05-05 14:49 -1.37929 36.61677 10210 ft 173 kts 130°
2026-05-05 14:49 -1.38700 36.62593 10211 ft 173 kts 127°
2026-05-05 14:49 -1.39465 36.63534 10210 ft 173 kts 127°
2026-05-05 14:49 -1.40236 36.64462 10206 ft 174 kts 134°
2026-05-05 14:50 -1.41328 36.64857 10214 ft 178 kts 175°
2026-05-05 14:50 -1.42509 36.65091 10218 ft 174 kts 147°
2026-05-05 14:50 -1.43501 36.65775 10213 ft 174 kts 141°
2026-05-05 14:50 -1.44507 36.66452 10208 ft 176 kts 149°
2026-05-05 14:51 -1.45594 36.67006 10210 ft 176 kts 150°
2026-05-05 14:51 -1.46691 36.67551 10210 ft 176 kts 150°
2026-05-05 14:51 -1.47604 36.68085 10209 ft 174 kts 133°
2026-05-05 14:51 -1.48111 36.69147 10222 ft 171 kts 104°
2026-05-05 14:52 -1.48384 36.70269 10211 ft 171 kts 95°
2026-05-05 14:52 -1.48007 36.71337 10226 ft 171 kts 52°
2026-05-05 14:52 -1.47227 36.72247 10070 ft 177 kts 50°
2026-05-05 14:52 -1.46436 36.73166 9863 ft 176 kts 51°
2026-05-05 14:53 -1.45667 36.74113 9646 ft 177 kts 53°
2026-05-05 14:53 -1.44920 36.75077 9421 ft 177 kts 54°
2026-05-05 14:53 -1.44181 36.76057 9189 ft 178 kts 55°
2026-05-05 14:53 -1.43450 36.77043 8953 ft 178 kts 55°
2026-05-05 14:54 -1.42724 36.78031 8712 ft 176 kts 56°
2026-05-05 14:54 -1.42006 36.79010 8472 ft 174 kts 56°
2026-05-05 14:54 -1.41294 36.79982 8233 ft 174 kts 56°
2026-05-05 14:54 -1.40580 36.80957 7992 ft 173 kts 56°
2026-05-05 14:55 -1.39881 36.81912 7757 ft 173 kts 56°
2026-05-05 14:55 -1.39173 36.82879 7518 ft 173 kts 56°
2026-05-05 14:55 -1.38465 36.83846 7280 ft 172 kts 56°
2026-05-05 14:55 -1.37761 36.84808 7043 ft 172 kts 56°
2026-05-05 14:56 -1.37057 36.85770 6808 ft 172 kts 56°
2026-05-05 14:56 -1.36358 36.86725 6574 ft 172 kts 56°
2026-05-05 14:56 -1.35732 36.87579 6367 ft 171 kts 56°
2026-05-05 14:56 -1.35177 36.88338 6183 ft 171 kts 56°
2026-05-05 14:57 -1.34477 36.89294 5953 ft 171 kts 56°
2026-05-05 14:57 -1.33730 36.90315 5708 ft 170 kts 56°
2026-05-05 14:57 -1.33025 36.91278 5479 ft 169 kts 56°
2026-05-05 14:57 -1.32271 36.92301 5414 ft 165 kts 55°
2026-05-05 14:58 -1.31592 36.93225 5454 ft 165 kts 57°
2026-05-05 14:58 -1.30945 36.94145 5676 ft 154 kts 56°
2026-05-05 14:58 -1.30354 36.94919 6102 ft 138 kts 57°
2026-05-05 14:58 -1.29777 36.95659 6513 ft 126 kts 53°
2026-05-05 14:59 -1.29244 36.96343 6756 ft 130 kts 54°
2026-05-05 14:59 -1.28709 36.97074 6991 ft 132 kts 55°
2026-05-05 14:59 -1.28203 36.97830 7235 ft 133 kts 57°
2026-05-05 14:59 -1.27713 36.98571 7467 ft 134 kts 56°
2026-05-05 15:00 -1.27154 36.99342 7707 ft 135 kts 54°
2026-05-05 15:00 -1.26789 36.99838 7860 ft 135 kts 54°
2026-05-05 15:00 -1.26053 37.00842 8159 ft 136 kts 55°
2026-05-05 15:00 -1.25496 37.01601 8377 ft 137 kts 55°
2026-05-05 15:01 -1.24947 37.02353 8587 ft 138 kts 55°
2026-05-05 15:01 -1.24387 37.03120 8794 ft 139 kts 55°
2026-05-05 15:01 -1.23821 37.03897 8998 ft 140 kts 55°
2026-05-05 15:01 -1.23253 37.04676 9195 ft 141 kts 56°
2026-05-05 15:02 -1.22683 37.05450 9386 ft 142 kts 52°
2026-05-05 15:02 -1.21847 37.05895 9559 ft 148 kts 12°
2026-05-05 15:02 -1.20832 37.06000 9747 ft 150 kts
2026-05-05 15:02 -1.19801 37.06054 9936 ft 150 kts
2026-05-05 15:03 -1.18772 37.06103 10113 ft 151 kts
2026-05-05 15:03 -1.17703 37.06155 10158 ft 160 kts
2026-05-05 15:03 -1.16608 37.06341 10150 ft 165 kts 32°
2026-05-05 15:03 -1.15932 37.07201 10157 ft 164 kts 76°
2026-05-05 15:04 -1.16065 37.08288 10156 ft 164 kts 121°
2026-05-05 15:04 -1.16952 37.08956 10156 ft 166 kts 165°
2026-05-05 15:04 -1.18064 37.08875 10158 ft 170 kts 195°
2026-05-05 15:04 -1.19145 37.08472 10156 ft 172 kts 200°
2026-05-05 15:05 -1.21112 37.07167 10152 ft 175 kts 218°
2026-05-05 15:05 -1.21962 37.06250 10012 ft 183 kts 230°
2026-05-05 15:05 -1.22734 37.05252 10000 ft 181 kts 231°
2026-05-05 15:06 -1.23489 37.04247 9999 ft 180 kts 231°
2026-05-05 15:06 -1.24236 37.03245 9999 ft 180 kts 232°
2026-05-05 15:06 -1.24983 37.02238 10000 ft 180 kts 232°
2026-05-05 15:06 -1.25732 37.01227 10000 ft 180 kts 232°
2026-05-05 15:07 -1.26475 37.00221 10000 ft 180 kts 232°
2026-05-05 15:07 -1.27219 36.99212 10000 ft 181 kts 232°
2026-05-05 15:07 -1.27962 36.98202 10000 ft 181 kts 233°
2026-05-05 15:07 -1.28705 36.97192 10000 ft 181 kts 233°
2026-05-05 15:08 -1.29453 36.96174 10000 ft 182 kts 233°
2026-05-05 15:08 -1.30182 36.95185 10000 ft 182 kts 233°
2026-05-05 15:08 -1.30602 36.94015 9993 ft 179 kts 276°
2026-05-05 15:08 -1.30073 36.92937 9994 ft 175 kts 320°
2026-05-05 15:09 -1.28975 36.92547 9994 ft 170 kts
2026-05-05 15:09 -1.27948 36.93043 9997 ft 168 kts 46°
2026-05-05 15:09 -1.27274 36.93894 10000 ft 168 kts 53°
2026-05-05 15:09 -1.26608 36.94856 10000 ft 169 kts 54°
2026-05-05 15:10 -1.25929 36.95813 10000 ft 169 kts 53°
2026-05-05 15:10 -1.25224 36.96761 10000 ft 169 kts 52°
2026-05-05 15:10 -1.24519 36.97698 9999 ft 169 kts 53°
2026-05-05 15:10 -1.24228 36.98799 9994 ft 170 kts 100°
2026-05-05 15:11 -1.24865 36.99768 9994 ft 173 kts 144°
2026-05-05 15:11 -1.26025 37.00033 9996 ft 177 kts 185°
2026-05-05 15:11 -1.27121 36.99504 9993 ft 180 kts 225°
2026-05-05 15:11 -1.27848 36.98490 10000 ft 180 kts 237°
2026-05-05 15:12 -1.28524 36.97424 10001 ft 181 kts 234°
2026-05-05 15:12 -1.29265 36.96409 10000 ft 181 kts 233°
2026-05-05 15:12 -1.29985 36.95432 10000 ft 182 kts 233°
2026-05-05 15:12 -1.30746 36.94401 9996 ft 182 kts 233°
2026-05-05 15:13 -1.32026 36.92649 9759 ft 183 kts 233°
2026-05-05 15:13 -1.32781 36.91616 9608 ft 182 kts 234°
2026-05-05 15:13 -1.33532 36.90589 9456 ft 182 kts 234°
2026-05-05 15:14 -1.34278 36.89569 9306 ft 182 kts 234°
2026-05-05 15:14 -1.35022 36.88553 9156 ft 181 kts 234°
2026-05-05 15:14 -1.35765 36.87539 9006 ft 181 kts 234°
2026-05-05 15:14 -1.36508 36.86523 8856 ft 181 kts 234°
2026-05-05 15:15 -1.37250 36.85511 8706 ft 181 kts 234°
2026-05-05 15:15 -1.37991 36.84498 8556 ft 181 kts 234°
2026-05-05 15:15 -1.38733 36.83486 8406 ft 181 kts 234°
2026-05-05 15:15 -1.39477 36.82470 8306 ft 178 kts 234°
2026-05-05 15:16 -1.40194 36.81493 8298 ft 172 kts 233°
2026-05-05 15:16 -1.40897 36.80536 8298 ft 169 kts 233°
2026-05-05 15:16 -1.41601 36.79584 8302 ft 173 kts 233°
2026-05-05 15:16 -1.42336 36.78624 8301 ft 175 kts 226°
2026-05-05 15:17 -1.43425 36.78123 8313 ft 175 kts 192°
2026-05-05 15:17 -1.44620 36.77869 8302 ft 177 kts 189°
2026-05-05 15:17 -1.45828 36.77647 8300 ft 177 kts 189°
2026-05-05 15:17 -1.46762 36.77480 8300 ft 177 kts 189°
2026-05-05 15:18 -1.47980 36.77261 8300 ft 178 kts 189°
2026-05-05 15:18 -1.49165 36.76971 8289 ft 179 kts 208°
2026-05-05 15:18 -1.49894 36.76013 8296 ft 176 kts 256°
2026-05-05 15:18 -1.49756 36.74834 8294 ft 173 kts 300°
2026-05-05 15:19 -1.48852 36.74105 8295 ft 169 kts 345°
2026-05-05 15:19 -1.47689 36.74076 8302 ft 168 kts
2026-05-05 15:19 -1.46520 36.74212 8300 ft 169 kts
2026-05-05 15:19 -1.45363 36.74385 8295 ft 169 kts 17°
2026-05-05 15:20 -1.44500 36.75123 8302 ft 168 kts 56°
2026-05-05 15:20 -1.43893 36.76116 8301 ft 168 kts 58°
2026-05-05 15:20 -1.43279 36.77105 8300 ft 167 kts 56°
2026-05-05 15:20 -1.42633 36.78063 8337 ft 164 kts 56°
2026-05-05 15:21 -1.41982 36.78989 8366 ft 164 kts 56°
2026-05-05 15:21 -1.41294 36.79957 8170 ft 175 kts 56°
2026-05-05 15:21 -1.40569 36.80960 7951 ft 181 kts 56°
2026-05-05 15:21 -1.39830 36.81980 7715 ft 182 kts 56°
2026-05-05 15:22 -1.39088 36.82995 7475 ft 181 kts 56°
2026-05-05 15:22 -1.38345 36.84011 7231 ft 182 kts 56°
2026-05-05 15:22 -1.37600 36.85028 6985 ft 182 kts 56°
2026-05-05 15:22 -1.36855 36.86045 6738 ft 182 kts 56°
2026-05-05 15:23 -1.36104 36.87071 6489 ft 181 kts 56°
2026-05-05 15:23 -1.35382 36.88059 6249 ft 179 kts 56°
2026-05-05 15:23 -1.34669 36.89038 6010 ft 164 kts 56°
2026-05-05 15:23 -1.34029 36.89907 5800 ft 148 kts 56°
2026-05-05 15:24 -1.33452 36.90694 5613 ft 134 kts 57°
2026-05-05 15:24 -1.32939 36.91405 5502 ft 113 kts 57°
2026-05-05 15:24 -1.32508 36.91978 5354 ft 96 kts 56°
2026-05-05 15:24 -1.32146 36.92476 5334 ft 81 kts 54°
2026-05-05 15:25 -1.31819 36.92922 5334 ft 93 kts 54°
2026-05-05 15:25 -1.31362 36.93556 5339 ft 129 kts 54°
2026-05-05 15:25 -1.30782 36.94335 5362 ft 148 kts 55°
2026-05-05 15:25 -1.30144 36.95202 5360 ft 161 kts 55°
2026-05-05 15:26 -1.29859 36.96207 5484 ft 153 kts 113°
2026-05-05 15:26 -1.30479 36.96997 5859 ft 135 kts 131°
2026-05-05 15:26 -1.31065 36.97702 6195 ft 129 kts 128°
2026-05-05 15:26 -1.31656 36.98395 6398 ft 133 kts 131°
2026-05-05 15:27 -1.32277 36.99085 6630 ft 134 kts 131°
2026-05-05 15:27 -1.33019 36.99624 6844 ft 135 kts 161°
2026-05-05 15:27 -1.33930 36.99821 7073 ft 135 kts 169°
2026-05-05 15:27 -1.34810 36.99947 7276 ft 136 kts 170°
2026-05-05 15:28 -1.35757 37.00076 7505 ft 137 kts 170°
2026-05-05 15:28 -1.36698 37.00205 7759 ft 137 kts 169°
2026-05-05 15:28 -1.37645 37.00335 8000 ft 138 kts 169°
2026-05-05 15:28 -1.38593 37.00467 8237 ft 139 kts 169°
2026-05-05 15:29 -1.39549 37.00601 8469 ft 139 kts 169°
2026-05-05 15:29 -1.40506 37.00736 8694 ft 140 kts 169°
2026-05-05 15:29 -1.41467 37.00872 8916 ft 140 kts 169°
2026-05-05 15:29 -1.42449 37.01012 9066 ft 146 kts 169°
2026-05-05 15:30 -1.43491 37.01161 9080 ft 157 kts 169°
2026-05-05 15:30 -1.44600 37.01318 9078 ft 164 kts 170°
2026-05-05 15:30 -1.45738 37.01478 9076 ft 168 kts 170°
2026-05-05 15:30 -1.46901 37.01642 9075 ft 170 kts 170°
2026-05-05 15:31 -1.47841 37.01775 9075 ft 171 kts 170°
2026-05-05 15:31 -1.48987 37.01937 9075 ft 171 kts 170°
2026-05-05 15:31 -1.50172 37.02104 9074 ft 172 kts 170°
2026-05-05 15:31 -1.51298 37.02328 9073 ft 171 kts 153°
2026-05-05 15:32 -1.52203 37.02991 9079 ft 170 kts 140°
2026-05-05 15:32 -1.53105 37.03763 9075 ft 171 kts 138°
2026-05-05 15:32 -1.53989 37.04547 9074 ft 171 kts 138°
2026-05-05 15:32 -1.54873 37.05337 9074 ft 171 kts 138°
2026-05-05 15:33 -1.55743 37.06127 9074 ft 171 kts 134°
2026-05-05 15:33 -1.56134 37.07221 9086 ft 173 kts 85°
2026-05-05 15:33 -1.55582 37.08268 9086 ft 177 kts 41°
2026-05-05 15:33 -1.54432 37.08648 9086 ft 180 kts 356°
2026-05-05 15:34 -1.53236 37.08285 9082 ft 181 kts 337°
2026-05-05 15:34 -1.52082 37.07771 9075 ft 182 kts 334°
2026-05-05 15:34 -1.51179 37.06939 9083 ft 180 kts 291°
2026-05-05 15:34 -1.50861 37.05734 9079 ft 180 kts 280°
2026-05-05 15:35 -1.50815 37.04495 9079 ft 178 kts 251°
2026-05-05 15:35 -1.50941 37.03281 9072 ft 181 kts 283°
2026-05-05 15:35 -1.50570 37.02079 9076 ft 182 kts 286°
2026-05-05 15:35 -1.50443 37.00848 9079 ft 179 kts 250°
2026-05-05 15:36 -1.51194 36.99926 9103 ft 174 kts 205°
2026-05-05 15:36 -1.52338 36.99785 9164 ft 167 kts 161°
2026-05-05 15:36 -1.53227 37.00467 9169 ft 165 kts 119°
2026-05-05 15:36 -1.53698 37.01522 9160 ft 167 kts 109°
2026-05-05 15:37 -1.54086 37.02618 9156 ft 168 kts 108°
2026-05-05 15:37 -1.54457 37.03721 9156 ft 168 kts 108°
2026-05-05 15:37 -1.54822 37.04831 9155 ft 168 kts 108°
2026-05-05 15:37 -1.55183 37.05942 9155 ft 169 kts 108°
2026-05-05 15:38 -1.55504 37.07067 9154 ft 169 kts 95°
2026-05-05 15:38 -1.55080 37.08135 9168 ft 173 kts 46°
2026-05-05 15:38 -1.53972 37.08587 9167 ft 179 kts
2026-05-05 15:38 -1.52774 37.08255 9162 ft 182 kts 331°
2026-05-05 15:39 -1.51994 37.07288 9169 ft 183 kts 292°
2026-05-05 15:39 -1.51554 37.06090 9158 ft 184 kts 287°
2026-05-05 15:39 -1.51170 37.04866 9156 ft 185 kts 287°
2026-05-05 15:39 -1.50793 37.03644 9155 ft 185 kts 287°
2026-05-05 15:40 -1.50413 37.02416 9155 ft 185 kts 287°
2026-05-05 15:40 -1.50030 37.01181 9155 ft 185 kts 288°
2026-05-05 15:40 -1.49644 36.99956 9155 ft 185 kts 288°
2026-05-05 15:40 -1.49256 36.98731 9153 ft 185 kts 288°
2026-05-05 15:41 -1.48864 36.97506 9021 ft 185 kts 289°
2026-05-05 15:41 -1.48476 36.96289 8871 ft 185 kts 289°
2026-05-05 15:41 -1.48086 36.95072 8722 ft 185 kts 289°
2026-05-05 15:41 -1.47696 36.93856 8573 ft 185 kts 289°
2026-05-05 15:42 -1.47304 36.92631 8423 ft 185 kts 289°
2026-05-05 15:42 -1.46913 36.91412 8273 ft 185 kts 289°
2026-05-05 15:42 -1.46523 36.90192 8124 ft 185 kts 289°
2026-05-05 15:42 -1.46132 36.88970 7975 ft 185 kts 289°
2026-05-05 15:43 -1.45738 36.87740 7824 ft 185 kts 289°
2026-05-05 15:43 -1.45347 36.86515 7695 ft 185 kts 288°
2026-05-05 15:43 -1.44961 36.85300 7679 ft 183 kts 288°
2026-05-05 15:43 -1.44573 36.84077 7681 ft 183 kts 288°
2026-05-05 15:44 -1.44184 36.82859 7684 ft 183 kts 288°
2026-05-05 15:44 -1.43678 36.81703 7676 ft 182 kts 313°
2026-05-05 15:44 -1.42593 36.81187 7687 ft 175 kts 359°
2026-05-05 15:44 -1.41392 36.81255 7690 ft 173 kts
2026-05-05 15:45 -1.40204 36.81426 7684 ft 173 kts 19°
2026-05-05 15:45 -1.39332 36.82182 7587 ft 172 kts 61°
2026-05-05 15:45 -1.38749 36.83264 7372 ft 176 kts 61°
2026-05-05 15:45 -1.38133 36.84255 7155 ft 176 kts 58°
2026-05-05 15:46 -1.37439 36.85247 6925 ft 176 kts 56°
2026-05-05 15:46 -1.36601 36.86098 6748 ft 176 kts 23°
2026-05-05 15:46 -1.35488 36.85870 6653 ft 171 kts 317°
2026-05-05 15:46 -1.34836 36.84862 6251 ft 172 kts 305°
2026-05-05 15:47 -1.34236 36.83933 5898 ft 147 kts 298°
2026-05-05 15:47 -1.33780 36.83122 5776 ft 124 kts 304°
2026-05-05 15:47 -1.33227 36.82502 5565 ft 116 kts 318°
2026-05-05 15:47 -1.32700 36.81987 5459 ft 87 kts 318°
2026-05-05 15:48 -1.32373 36.81661 5473 ft 52 kts 315°
2026-05-05 15:48 -1.32157 36.81442 5478 ft 37 kts 314°
2026-05-05 15:48 -1.32016 36.81293 5497 ft 21 kts 314°
2026-05-05 15:48 -1.32011 36.81197 5502 ft 16 kts 245°
2026-05-05 15:49 -1.32046 36.81095 5507 ft 15 kts 255°
2026-05-05 15:49 -1.32077 36.81061 5510 ft 3 kts 111°
2026-05-05 15:49 -1.32080 36.81070 5509 ft 0 kts 110°